Location: Góry Miechowskie
(50.3599°N, 20.1803°E)
Time: 03:07:39
(UTC+00:00)

SR - Pass Details

Date: 14 September 2024
Orbit: 578 x 855 km, 66.7° (Epoch: 04 October)

Event Time Altitude Azimuth Distance (km) Brightness Sun altitude
Rises 19:28:32 0° 325° (NW) 2,886 ? -23.5°
Reaches altitude 10° 19:30:50 10° 333° (NNW) 2,011 ? -23.8°
Maximum altitude 19:35:09 42° 45° (NE) 943 ? -24.3°
Enters shadow 19:35:10 42° 45° (NE) 943 ? -24.3°
